Date String (YYYY-MM-DD hh:mm:ss) UTC,Instrument flags,absolute air pressure of the measurement (hPa),sample flow rate (lpm),inlet stack bypass flow (lpm),air temperature of the measurement (°C),ambient temperature measured by the external sensor (°C),aerosol sample conditioner tube jacket temperature (°C),OPC LED temperature (°C),internal box temperature (°C),relative humidity of the measurement (%),span deviation,mass concentration of particles derived from Lorenz-Mie calculation of OPC scattering (μg/m³),mass concentration of particles derived from Lorenz-Mie calculation of OPC scattering (μg/m³),mass concentration of particles derived from Lorenz-Mie calculation of OPC scattering (μg/m³)
DateTimeUTC,F1_M11,P_M11,Q1_M11,Q2_M11,T1_M11,T2_M11,T3_M11,T4_M11,T5_M11,U1_M11,ZSPAN_M11,X0_M11,X2_M11,X1_M11
2024-04-07 21:00:00,SystemResetWarning,0819.0,5.00,000.00,018.8,018.4,000.0,027.1,020.5,009.2,0000.0,0003.47,0001.41,0000.72
2024-04-07 21:01:00,SystemResetWarning,0819.0,5.01,000.00,018.8,018.4,000.0,027.1,020.5,009.5,0000.0,0003.38,0001.45,0000.72
2024-04-07 21:02:00,SystemResetWarning,0819.0,5.01,000.00,018.8,018.4,000.0,027.1,020.5,009.7,0000.0,0003.15,0001.48,0000.73
2024-04-07 21:03:00,SystemResetWarning,0819.0,5.00,000.00,018.9,018.4,000.0,027.1,020.5,009.2,0000.0,0003.04,0001.47,0000.73
2024-04-07 21:04:00,SystemResetWarning,0819.0,5.00,000.00,018.9,018.4,000.0,027.1,020.5,009.3,0000.0,0003.05,0001.48,0000.73
2024-04-07 21:05:00,SystemResetWarning,0819.0,5.00,000.00,018.9,018.4,000.0,027.2,020.6,008.9,0000.0,0003.24,0001.54,0000.74
2024-04-07 21:06:00,SystemResetWarning,0819.1,5.00,000.00,018.9,018.4,000.0,027.2,020.6,008.9,0000.0,0003.44,0001.54,0000.75
2024-04-07 21:07:00,SystemResetWarning,0819.0,5.00,000.00,018.9,018.4,000.0,027.2,020.6,008.9,0000.0,0003.48,0001.55,0000.75
2024-04-07 21:08:00,SystemResetWarning,0819.0,5.00,000.00,018.9,018.5,000.0,027.2,020.6,008.9,0000.0,0003.59,0001.60,0000.76
2024-04-07 21:09:00,SystemResetWarning,0819.0,5.00,000.00,018.9,018.5,000.0,027.2,020.6,009.2,0000.0,0003.74,0001.65,0000.76
2024-04-07 21:10:00,SystemResetWarning,0819.0,5.00,000.00,018.9,018.5,000.0,027.2,020.6,009.1,0000.0,0003.65,0001.60,0000.75
2024-04-07 21:11:00,SystemResetWarning,0819.1,4.99,000.00,019.0,018.5,000.0,027.2,020.7,009.1,0000.0,0004.92,0001.61,0000.75
2024-04-07 21:12:00,SystemResetWarning,0819.1,5.00,000.00,019.0,018.5,000.0,027.3,020.7,009.2,0000.0,0004.84,0001.56,0000.75
2024-04-07 21:13:00,SystemResetWarning,0819.0,5.00,000.00,019.0,018.5,000.0,027.3,020.7,009.2,0000.0,0004.64,0001.53,0000.76
2024-04-07 21:14:00,SystemResetWarning,0819.1,5.00,000.00,019.0,018.5,000.0,027.3,020.7,008.9,0000.0,0004.90,0001.52,0000.76
2024-04-07 21:15:00,SystemResetWarning,0819.0,5.01,000.00,019.0,018.6,000.0,027.3,020.7,008.6,0000.0,0005.65,0001.53,0000.76
2024-04-07 21:16:00,SystemResetWarning,0819.1,5.00,000.00,019.0,018.6,000.0,027.3,020.7,008.4,0000.0,0005.48,0001.48,0000.76
2024-04-07 21:17:00,SystemResetWarning,0819.1,5.00,000.00,019.0,018.6,000.0,027.3,020.7,008.2,0000.0,0005.20,0001.44,0000.76
2024-04-07 21:18:00,SystemResetWarning,0819.1,5.00,000.00,019.0,018.6,000.0,027.3,020.7,008.4,0000.0,0004.99,0001.38,0000.76
2024-04-07 21:19:00,SystemResetWarning,0819.1,4.99,000.00,019.1,018.6,000.0,027.3,020.7,008.5,0000.0,0005.16,0001.35,0000.76
2024-04-07 21:20:00,SystemResetWarning,0819.1,5.00,000.00,019.1,018.6,000.0,027.3,020.8,008.7,0000.0,0005.16,0001.32,0000.77
2024-04-07 21:21:00,SystemResetWarning,0819.1,5.00,000.00,019.1,018.6,000.0,027.4,020.8,008.8,0000.0,0005.87,0001.35,0000.78
2024-04-07 21:22:00,SystemResetWarning,0819.1,5.00,000.00,019.1,018.6,000.0,027.4,020.8,008.7,0000.0,0005.29,0001.35,0000.78
2024-04-07 21:23:00,SystemResetWarning,0819.1,5.00,000.00,019.1,018.6,000.0,027.4,020.8,008.8,0000.0,0005.32,0001.42,0000.78
2024-04-07 21:24:00,SystemResetWarning,0819.1,5.00,000.00,019.1,018.6,000.0,027.4,020.8,008.8,0000.0,0005.26,0001.42,0000.79
2024-04-07 21:25:00,SystemResetWarning,0818.9,5.00,000.00,019.1,018.7,000.0,027.4,020.8,009.0,0000.0,0005.08,0001.47,0000.80
2024-04-07 21:26:00,SystemResetWarning,0819.0,5.00,000.00,019.1,018.7,000.0,027.4,020.8,008.8,0000.0,0004.26,0001.43,0000.80
2024-04-07 21:27:00,SystemResetWarning,0819.0,4.99,000.00,019.1,018.7,000.0,027.4,020.8,008.9,0000.0,0004.20,0001.41,0000.80
2024-04-07 21:28:00,SystemResetWarning,0818.9,5.00,000.00,019.2,018.7,000.0,027.4,020.9,009.0,0000.0,0004.24,0001.44,0000.80
2024-04-07 21:29:00,SystemResetWarning,0818.9,5.01,000.00,019.2,018.7,000.0,027.5,020.9,008.5,0000.0,0004.42,0001.50,0000.80
2024-04-07 21:30:00,SystemResetWarning,0819.1,5.00,000.00,019.2,018.7,000.0,027.5,020.9,008.4,0000.0,0004.23,0001.51,0000.81
2024-04-07 21:31:00,SystemResetWarning,0818.9,5.01,000.00,019.2,018.7,000.0,027.5,020.9,008.7,0000.0,0004.75,0001.52,0000.81
2024-04-07 21:32:00,SystemResetWarning,0818.9,5.00,000.00,019.2,018.7,000.0,027.5,020.9,008.6,0000.0,0005.15,0001.54,0000.82
2024-04-07 21:33:00,SystemResetWarning,0819.0,5.00,000.00,019.2,018.7,000.0,027.5,020.9,008.4,0000.0,0004.29,0001.53,0000.82
2024-04-07 21:34:00,SystemResetWarning,0819.0,5.00,000.00,019.2,018.7,000.0,027.5,020.9,008.4,0000.0,0004.50,0001.47,0000.82
2024-04-07 21:35:00,SystemResetWarning,0819.0,4.99,000.00,019.2,018.8,000.0,027.5,020.9,008.4,0000.0,0004.61,0001.50,0000.83
2024-04-07 21:36:00,SystemResetWarning,0819.1,5.00,000.00,019.2,018.8,000.0,027.6,020.9,008.4,0000.0,0004.65,0001.51,0000.83
2024-04-07 21:37:00,SystemResetWarning,0819.2,5.00,000.00,019.2,018.8,000.0,027.6,020.9,008.7,0000.0,0004.69,0001.52,0000.83
2024-04-07 21:38:00,SystemResetWarning,0819.1,5.00,000.00,019.3,018.8,000.0,027.6,020.9,008.9,0000.0,0004.69,0001.52,0000.83
2024-04-07 21:39:00,SystemResetWarning,0819.0,5.00,000.00,019.3,018.8,000.0,027.6,021.0,009.0,0000.0,0004.57,0001.48,0000.83
2024-04-07 21:40:00,SystemResetWarning,0819.0,5.00,000.00,019.3,018.8,000.0,027.6,021.0,009.2,0000.0,0004.53,0001.44,0000.83
2024-04-07 21:41:00,SystemResetWarning,0819.1,5.00,000.00,019.3,018.8,000.0,027.6,021.0,009.0,0000.0,0004.60,0001.44,0000.82
2024-04-07 21:42:00,SystemResetWarning,0819.1,5.00,000.00,019.3,018.8,000.0,027.6,021.0,009.1,0000.0,0004.24,0001.43,0000.81
2024-04-07 21:43:00,SystemResetWarning,0819.0,5.00,000.00,019.3,018.8,000.0,027.6,021.0,009.3,0000.0,0003.44,0001.45,0000.82
2024-04-07 21:44:00,SystemResetWarning,0819.1,5.01,000.00,019.3,018.8,000.0,027.6,021.0,008.8,0000.0,0004.20,0001.53,0000.83
2024-04-07 21:45:00,SystemResetWarning,0819.3,5.01,000.00,019.3,018.8,000.0,027.7,021.0,008.7,0000.0,0003.81,0001.54,0000.85
2024-04-07 21:46:00,SystemResetWarning,0819.2,5.01,000.00,019.3,018.8,000.0,027.7,021.0,009.0,0000.0,0003.73,0001.52,0000.84
2024-04-07 21:47:00,SystemResetWarning,0819.1,5.00,000.00,019.3,018.8,000.0,027.7,021.0,009.0,0000.0,0003.72,0001.49,0000.83
2024-04-07 21:48:00,SystemResetWarning,0819.2,4.99,000.00,019.3,018.9,000.0,027.7,021.0,009.4,0000.0,0003.73,0001.49,0000.84
2024-04-07 21:49:00,SystemResetWarning,0819.2,4.99,000.00,019.3,018.9,000.0,027.7,021.0,009.1,0000.0,0003.70,0001.47,0000.84
2024-04-07 21:50:00,SystemResetWarning,0819.3,5.00,000.00,019.4,018.9,000.0,027.7,021.1,009.1,0000.0,0003.73,0001.49,0000.84
2024-04-07 21:51:00,SystemResetWarning,0819.2,5.01,000.00,019.4,018.9,000.0,027.7,021.1,009.3,0000.0,0003.78,0001.53,0000.83
2024-04-07 21:52:00,SystemResetWarning,0819.2,5.01,000.00,019.4,018.9,000.0,027.7,021.1,009.1,0000.0,0003.80,0001.56,0000.84
2024-04-07 21:53:00,SystemResetWarning,0819.2,5.00,000.00,019.4,018.9,000.0,027.7,021.1,009.1,0000.0,0003.80,0001.56,0000.84
2024-04-07 21:54:00,SystemResetWarning,0819.2,4.99,000.00,019.4,018.9,000.0,027.7,021.1,009.2,0000.0,0003.72,0001.55,0000.84
2024-04-07 21:55:00,SystemResetWarning,0819.0,4.99,000.00,019.4,018.9,000.0,027.7,021.1,009.2,0000.0,0004.21,0001.56,0000.86
2024-04-07 21:56:00,SystemResetWarning,0819.1,5.00,000.00,019.4,018.9,000.0,027.7,021.1,009.1,0000.0,0005.77,0001.62,0000.86
2024-04-07 21:57:00,SystemResetWarning,0819.1,5.00,000.00,019.4,018.9,000.0,027.7,021.1,009.1,0000.0,0005.85,0001.66,0000.87
2024-04-07 21:58:00,SystemResetWarning,0819.1,5.00,000.00,019.4,018.9,000.0,027.8,021.1,009.2,0000.0,0005.91,0001.70,0000.88
2024-04-07 21:59:00,SystemResetWarning,0819.1,5.00,000.00,019.4,018.9,000.0,027.8,021.2,009.2,0000.0,0005.95,0001.71,0000.89
